Weather History for Chicago DuPage, IL

Change the Weather History Date:

Saturday, June 29, 2013

  Actual Average Record
Temperature  
Mean Temperature 67 °F 73 °F  
Max Temperature 72 °F 85 °F 91 °F (2005)
Min Temperature 61 °F 62 °F 51 °F (2007)
Degree Days  
Heating Degree Days 0 0  
Month to date heating degree days 54 34  
Since 1 June heating degree days 54 34  
Since 1 July heating degree days 6583 6313  
Cooling Degree Days 2 8  
Month to date cooling degree days 136 168  
Year to date cooling degree days 213 214  
Since 1 June cooling degree days 136 168  
Growing Degree Days 16 (Base 50)    
Moisture  
Dew Point 61 °F    
Average Humidity 83    
Maximum Humidity 94    
Minimum Humidity 65    
Precipitation  
Precipitation 0.00 in 0.08 in 0.28 in (2012)
Month to date precipitation 2.90 3.81  
Year to date precipitation 20.19 16.83  
Sea Level Pressure  
Sea Level Pressure 29.66 in    
Wind  
Wind Speed 10 mph (NNE)    
Max Wind Speed 22 mph    
Max Gust Speed 28 mph    
Visibility 9 miles    
Events      
T = Trace of Precipitation, MM = Missing Value Source: NWS Daily Summary

Daily Weather History Graph

Daily Weather History Graph

Search for Another Location

Airport:

Trip Planner

Search our weather history database for the weather conditions in past years. The results will help you decide how hot, cold, wet, or windy it might be!

Date:

Astronomy

Jun. 29, 2013 Rise Set
Actual Time 5:20 AM CDT 8:32 PM CDT
Civil Twilight 4:46 AM CDT 9:06 PM CDT
Nautical Twilight 4:02 AM CDT 9:50 PM CDT
Astronomical Twilight 3:09 AM CDT 10:43 PM CDT
Moon No Moon Rise 12:39 PM CDT (6/29)
Length of Visible Light 16h 19m
Length of Day
15h 11m
Waning Gibbous, 55% of the Moon is Illuminated
Jun 29
Waning Gibbous
Jun 29
Last Quarter
Jul 8
New
Jul 15
First Quarter
Jul 22
Full

Hourly Weather History & Observations

Time (CDT) Temp. Dew Point Humidity Pressure Visibility Wind Dir Wind Speed Gust Speed Precip Events Conditions
12:52 AM 64.9 °F 62.1 °F 90% 29.60 in 10.0 mi NW 3.5 mph - N/A   Clear
1:13 AM 66.2 °F 62.6 °F 88% 29.61 in 10.0 mi NW 5.8 mph - N/A   Mostly Cloudy
1:52 AM 64.9 °F 63.0 °F 93% 29.59 in 10.0 mi WNW 5.8 mph - N/A   Mostly Cloudy
2:11 AM 64.4 °F 62.6 °F 94% 29.61 in 10.0 mi NW 5.8 mph - N/A   Scattered Clouds
2:52 AM 64.0 °F 62.1 °F 93% 29.60 in 10.0 mi North 5.8 mph - N/A   Scattered Clouds
3:52 AM 64.0 °F 62.1 °F 93% 29.60 in 10.0 mi NNW 4.6 mph - N/A   Mostly Cloudy
4:52 AM 64.0 °F 61.0 °F 90% 29.61 in 10.0 mi NNE 6.9 mph - N/A   Overcast
5:52 AM 64.0 °F 61.0 °F 90% 29.62 in 9.0 mi North 6.9 mph - N/A   Overcast
6:31 AM 64.4 °F 62.6 °F 94% 29.63 in 9.0 mi NNE 6.9 mph - N/A   Overcast
6:39 AM 64.4 °F 62.6 °F 94% 29.63 in 9.0 mi North 4.6 mph - N/A   Overcast
6:50 AM 64.4 °F 62.6 °F 94% 29.63 in 9.0 mi North 8.1 mph - N/A   Overcast
6:52 AM 64.9 °F 62.1 °F 90% 29.62 in 9.0 mi North 6.9 mph - N/A   Overcast
7:52 AM 64.9 °F 62.1 °F 90% 29.62 in 9.0 mi North 9.2 mph - N/A   Overcast
8:52 AM 66.9 °F 62.1 °F 84% 29.62 in 9.0 mi NNE 9.2 mph - N/A   Overcast
9:52 AM 66.9 °F 63.0 °F 87% 29.63 in 9.0 mi NNE 8.1 mph - N/A   Overcast
10:52 AM 68.0 °F 63.0 °F 84% 29.62 in 10.0 mi NNE 8.1 mph - N/A   Overcast
11:52 AM 68.0 °F 63.0 °F 84% 29.63 in 2.5 mi NNE 10.4 mph - N/A   Haze
11:59 AM 66.2 °F 62.6 °F 88% 29.65 in 7.0 mi NNE 10.4 mph - N/A   Overcast
12:52 PM 68.0 °F 63.0 °F 84% 29.64 in 7.0 mi NE 10.4 mph - N/A   Overcast
1:52 PM 66.9 °F 62.1 °F 84% 29.67 in 10.0 mi NNE 12.7 mph - N/A   Overcast
2:06 PM 66.2 °F 62.6 °F 88% 29.68 in 9.0 mi NNE 12.7 mph - N/A   Overcast
2:27 PM 66.2 °F 60.8 °F 83% 29.68 in 10.0 mi NNE 12.7 mph - N/A   Overcast
2:52 PM 66.9 °F 62.1 °F 84% 29.68 in 10.0 mi North 11.5 mph - N/A   Overcast
3:52 PM 69.1 °F 60.1 °F 73% 29.69 in 10.0 mi NNE 11.5 mph - N/A   Overcast
4:02 PM 69.8 °F 60.8 °F 73% 29.69 in 10.0 mi NNE 10.4 mph - N/A   Overcast
4:52 PM 70.0 °F 57.9 °F 65% 29.69 in 10.0 mi North 16.1 mph - N/A   Clear
5:52 PM 69.1 °F 57.9 °F 68% 29.69 in 10.0 mi North 15.0 mph - N/A   Clear
6:52 PM 68.0 °F 55.9 °F 65% 29.72 in 10.0 mi NE 17.3 mph 23.0 mph N/A   Overcast
7:52 PM 66.9 °F 55.0 °F 66% 29.74 in 10.0 mi NNE 11.5 mph - N/A   Overcast
8:52 PM 66.0 °F 54.0 °F 65% 29.75 in 10.0 mi NNE 15.0 mph - N/A   Mostly Cloudy
9:52 PM 64.0 °F 55.0 °F 73% 29.76 in 10.0 mi North 9.2 mph - N/A   Scattered Clouds
10:52 PM 62.1 °F 55.9 °F 80% 29.77 in 10.0 mi North 8.1 mph - N/A   Clear
11:52 PM 61.0 °F 55.9 °F 83% 29.77 in 10.0 mi NNE 9.2 mph - N/A   Partly Cloudy